Location: Calvatone
(45.1167°N, 10.4333°E)
Time: 15:07:54
(UTC+00:00)

MOS 1-B - Pass Details

Date: 28 January 2023
Orbit: 904 x 913 km, 99.4° (Epoch: 30 March)

Event Time Altitude Azimuth Distance (km) Brightness Sun altitude
Rises 17:41:12 0° 150° (SSE) 3,524 7.2 -14.5°
Reaches altitude 10° 17:43:37 10° 147° (SSE) 2,588 6.5 -14.9°
Maximum altitude 17:49:16 58° 69° (ENE) 1,056 4.4 -15.9°
Drops below altitude 10° 17:54:57 10° 352° (N) 2,611 6.7 -16.8°
Sets 17:57:25 0° 349° (N) 3,558 7.5 -17.3°
